Regional Weather Roundup
Issued by NWS

Home | Current Version | Previous Version | Text Only | Print | Product List | Glossary On
Versions: 1 2 3 4 5 6 7 8 9 10 11 12 13 14 15 16 17 18 19 20 21 22 23 24 25 26 27 28 29 30 31 32 33 34 35 36 37 38 39 40 41 42 43 44 45 46 47 48 49 50
000
ASUS43 KDTX 300610
RWRMI
MICHIGAN HOURLY REGIONAL WEATHER ROUNDUP
NATIONAL WEATHER SERVICE DETROIT/PONTIAC MI
200 AM EDT WED JUL 30 2014

NOTE: "FAIR" INDICATES FEW OR NO CLOUDS BELOW 12,000 FEET WITH NO
SIGNIFICANT WEATHER AND/OR OBSTRUCTION TO VISIBILITY.

MIZ047>049-052>055-059>063-066>070-074>076-081>083-300700-
SOUTHEAST LOWER MICHIGAN

CITY           SKY/WX    TMP DP  RH WIND       PRES   REMARKS
ADRIAN         PTCLDY    56  55  97 SW3       29.99S FOG
6HR MIN TEMP:  56; 6HR MAX TEMP:  69; 6HR PCP:  0.05;

ALMA           PTCLDY    55  54  95 W3        29.98S
ANN ARBOR      FOG       52  49  89 CALM      29.97F VSB 1/4
BAD AXE        PTCLDY    55  55 100 CALM      29.95S FOG
6HR MIN TEMP:  55; 6HR MAX TEMP:  67;

DETROIT CITY   PTCLDY    63  57  81 SW7       29.96R
6HR MIN TEMP:  63; 6HR MAX TEMP:  68; 6HR PCP: TRACE;

DETROIT        CLOUDY    58  56  93 SW5       29.97S
6HR MIN TEMP:  58; 6HR MAX TEMP:  67; 6HR PCP: TRACE;

FLINT          PTCLDY    56  54  93 SW3       29.96S FOG
6HR MIN TEMP:  57; 6HR MAX TEMP:  66; 6HR PCP:  0.08;

GROSSE ILE     CLEAR     61  57  88 CALM      29.96S
HILLSDALE      PTCLDY    56  56 100 CALM      30.00S
HOWELL         PTCLDY    55  55  97 W5        29.97F
6HR MIN TEMP:  55; 6HR MAX TEMP:  64;


CITY           SKY/WX    TMP DP  RH WIND       PRES   REMARKS
JACKSON        MOCLDY    58  55  90 W5        29.99S
6HR MIN TEMP:  57; 6HR MAX TEMP:  67;

LAMBERTVILLE   PTCLDY    59  55  88 CALM      29.98F
LANSING        PTCLDY    58  54  86 W6        29.99S
6HR MIN TEMP:  58; 6HR MAX TEMP:  69;

LAPEER         NOT AVBL
MASON          PTCLDY    58  54  85 W3        29.98S
MONROE         PTCLDY    57  55  94 SW3       29.96S
MT. CLEMENS    CLOUDY    61  57  87 W2        29.94S
6HR MIN TEMP:  59; 6HR MAX TEMP:  67; 6HR PCP:  0.03;

PONTIAC        CLEAR     59  56  89 W6        29.96S
6HR MIN TEMP:  58; 6HR MAX TEMP:  63; 6HR PCP:  0.06;

PORT HOPE        N/A     58  55  90 CALM      29.92F
6HR MIN TEMP:  56; 6HR MAX TEMP:  65;

PORT HURON     PTCLDY    54  54 100 CALM      29.95S FOG
TRI CITIES     CLEAR     58  55  90 W6        29.97F
6HR MIN TEMP:  58; 6HR MAX TEMP:  63;

YPSILANTI      PTCLDY    63  57  81 W8        29.97S
6HR MIN TEMP:  62; 6HR MAX TEMP:  69; 6HR PCP:  0.06;

$$
MIZ043>046-050>051-056>058-064>065-071>073-077>080-300700-
SOUTHWEST LOWER MICHIGAN

CITY           SKY/WX    TMP DP  RH WIND       PRES   REMARKS
BATTLE CREEK   MOCLDY    60  55  83 W6        30.00F
6HR MIN TEMP:  59; 6HR MAX TEMP:  69;

BENTON HARBOR  CLOUDY    61  57  87 CALM      29.99F
6HR MIN TEMP:  58; 6HR MAX TEMP:  67;

BIG RAPIDS     MOCLDY    56  56 100 CALM      29.98S
6HR MIN TEMP:  55; 6HR MAX TEMP:  68;

COLDWATER      MOCLDY    57  56  96 CALM      30.00S
6HR MIN TEMP:  56; 6HR MAX TEMP:  70;

HOLLAND        MOCLDY    59  55  87 CALM      30.00S
6HR MIN TEMP:  59; 6HR MAX TEMP:  67;

GRAND RAPIDS   PTCLDY    61  58  90 W8        29.99F
6HR MIN TEMP:  61; 6HR MAX TEMP:  71;

KALAMAZOO      CLOUDY    63  56  78 W3        30.00S
6HR MIN TEMP:  59; 6HR MAX TEMP:  69;

MARSHALL       MOCLDY    55  54  95 W3        29.99S
MUSKEGON       MOCLDY    57  53  86 CALM      29.99S
6HR MIN TEMP:  56; 6HR MAX TEMP:  63; 6HR PCP: TRACE;

$$
MIZ016>042-300700-
NORTHERN LOWER MICHIGAN

CITY           SKY/WX    TMP DP  RH WIND       PRES   REMARKS
ALPENA         CLEAR     53  51  93 CALM      29.95R
6HR MIN TEMP:  51; 6HR MAX TEMP:  64; 6HR PCP:  0.18;

BEAVER ISLAND  CLEAR     52  52 100 CALM      29.98S
6HR MIN TEMP:  48; 6HR MAX TEMP:  64;

BELLAIRE       CLEAR     53  52  95 CALM      29.97F FOG
6HR MIN TEMP:  53; 6HR MAX TEMP:  65;

CADILLAC       PTCLDY    53  53  99 NW5       29.98S
CHARLEVOIX     CLEAR     60  55  83 N3        30.00S
6HR MIN TEMP:  60; 6HR MAX TEMP:  64;

FRANKFORT      CLOUDY    57  54  90 CALM      29.98S FOG
GAYLORD        MOCLDY    53  52  96 W5        29.97F FOG
6HR MIN TEMP:  54; 6HR MAX TEMP:  63;

GRAYLING       FOG       52  52 100 CALM      29.99S VSB 1
6HR MIN TEMP:  52; 6HR MAX TEMP:  65;

HARBOR SPRINGS CLEAR     55  51  88 N6        29.96S
HOUGHTON LAKE  PTCLDY    56  54  93 NW5       29.98F
6HR MIN TEMP:  56; 6HR MAX TEMP:  65;

MANISTEE       CLOUDY    54  52  94 E3        29.99S
OSCODA         CLOUDY    53  52  97 W5        29.94S
PELLSTON       CLEAR     52  50  93 CALM      29.97S
6HR MIN TEMP:  50; 6HR MAX TEMP:  66;

TRAVERSE CITY  PTCLDY    57  54  89 CALM      29.97S
6HR MIN TEMP:  57; 6HR MAX TEMP:  67;

$$
MIZ007>008-015-300700-
EASTERN UPPER MICHIGAN

CITY           SKY/WX    TMP DP  RH WIND       PRES   REMARKS
KINROSS        CLOUDY    50  48  93 NW7       29.96S VSB 1
6HR MIN TEMP:  50; 6HR MAX TEMP:  55;

MACKINAC ISLAN CLEAR     52  51  97 NW6       29.96S
6HR MIN TEMP:  52; 6HR MAX TEMP:  64;

NEWBERRY       CLOUDY    49  49  99 W7        29.97F FOG
S. S. MARIE    CLOUDY    49  48  97 W7        29.96R FOG
6HR MIN TEMP:  49; 6HR MAX TEMP:  56;

$$
MIZ004>006-011>014-085-300700-
CENTRAL UPPER MICHIGAN

CITY           SKY/WX    TMP DP  RH WIND       PRES   REMARKS
MANISTIQUE     FOG       50  49  99 NW3       29.98S VSB 1/2
6HR MIN TEMP:  47; 6HR MAX TEMP:  64;

ESCANABA         N/A     52  48  87 NW5       29.99F VSB 3/4
6HR MIN TEMP:  52; 6HR MAX TEMP:  64;

MENOMINEE      CLOUDY    59  55  88 N3        29.99S
6HR MIN TEMP:  59; 6HR MAX TEMP:  64; 6HR PCP:  0.03;

SAWYER-GWINN   CLEAR     51  50  95 CALM      30.00S
6HR MIN TEMP:  50; 6HR MAX TEMP:  60;

$$
MIZ001>003-009>011-084-300700-
WESTERN UPPER MICHIGAN

CITY           SKY/WX    TMP DP  RH WIND       PRES   REMARKS
IRON MOUNTAIN  CLEAR     50  48  93 CALM      30.01S FOG
6HR MIN TEMP:  51; 6HR MAX TEMP:  70;

HOUGHTON       CLEAR     50  46  86 N7        30.03R
6HR MIN TEMP:  50; 6HR MAX TEMP:  61;

COPPER HARBOR    N/A     51  46  83 CALM      30.02S
6HR MIN TEMP:  51; 6HR MAX TEMP:  63;

$$

ABBREVIATIONS USED IN REMARKS
   TC - TEMPERATURE IN CELSIUS
  WCI - WIND CHILL INDEX
   HX - HEAT INDEX
  VSB - VISIBILITY



USA.gov is the U.S. government's official web portal to all federal, state and local government web resources and services.